Date,TemperatureHighF,TemperatureAvgF,TemperatureLowF,DewpointHighF,DewpointAvgF,DewpointLowF,HumidityHigh,HumidityAvg,HumidityLow,PressureMaxIn,PressureMinIn,WindSpeedMaxMPH,WindSpeedAvgMPH,GustSpeedMaxMPH,PrecipitationSumIn
2013-10-1,72.0,61.3,46.1,54.8,45.1,35.0,93,59,26,29.94,29.50,19,4,21,0.00
2013-10-2,74.0,52.3,33.4,51.8,43.3,32.6,98,77,28,30.03,29.88,20,4,20,0.22
2013-10-3,56.5,53.5,52.3,53.5,51.7,50.5,97,94,88,29.97,29.88,17,6,17,1.03
2013-10-4,58.6,53.6,51.4,53.0,51.1,50.0,97,91,79,30.04,29.90,29,9,29,0.01
2013-10-5,55.2,51.8,49.0,54.7,50.9,48.1,98,97,95,29.92,29.70,26,9,26,1.04
2013-10-6,53.2,47.2,37.5,49.3,45.9,37.0,99,95,86,29.81,29.66,20,5,20,0.03
2013-10-7,62.9,48.2,36.4,47.4,41.6,36.0,100,81,44,29.97,29.80,16,2,16,0.00
2013-10-8,75.7,58.2,39.0,50.9,45.7,37.8,97,67,40,29.96,29.76,25,4,25,0.00
2013-10-9,73.0,61.9,50.3,55.7,50.8,46.2,89,68,51,30.01,29.87,17,3,17,0.00
2013-10-10,75.3,62.7,46.4,55.7,50.4,44.0,92,66,44,30.01,29.87,21,6,21,0.00
2013-10-11,73.7,63.2,51.9,59.0,52.6,48.6,90,70,50,29.88,29.57,34,10,34,0.02
2013-10-12,62.1,50.9,44.2,57.8,45.7,41.9,93,83,71,30.13,29.60,26,6,28,0.03
2013-10-13,58.2,47.6,34.0,41.9,36.6,32.1,98,69,39,30.42,30.13,13,2,13,0.00
2013-10-14,50.4,42.4,32.8,43.4,37.9,31.7,97,85,67,30.43,30.05,18,4,18,0.14
2013-10-15,48.8,46.7,43.8,48.0,45.5,42.2,97,96,90,30.05,29.69,27,10,27,1.53
2013-10-16,53.6,44.0,33.2,42.7,38.4,32.2,97,82,52,29.94,29.84,18,5,18,0.00
2013-10-17,47.8,35.6,31.6,46.2,34.8,31.0,98,97,87,29.86,29.78,11,0,13,0.07
2013-10-18,49.9,42.6,35.7,39.7,35.6,29.2,96,78,47,29.95,29.84,13,4,16,0.08
2013-10-19,41.6,37.2,34.0,38.2,33.7,30.1,97,88,72,29.79,29.69,7,2,7,0.21
2013-10-20,34.5,30.4,26.2,33.6,29.7,25.4,98,97,96,29.84,29.69,13,2,13,0.17
2013-10-21,35.5,34.4,31.8,28.3,24.6,22.6,83,67,60,29.94,29.89,20,7,20,0.09
2013-10-22,39.4,36.0,31.4,30.5,28.4,25.9,86,74,63,30.04,29.97,12,4,12,0.09
2013-10-23,35.2,32.6,30.9,31.5,27.1,23.0,96,81,66,30.11,29.99,12,3,14,0.00
2013-10-24,40.5,34.5,29.4,32.9,28.3,24.2,89,78,67,30.28,30.11,13,5,17,0.00
2013-10-25,50.4,37.3,29.4,40.6,30.7,27.5,93,78,63,30.30,29.74,18,5,19,0.00
2013-10-26,44.1,41.1,36.8,32.0,30.9,29.4,75,67,59,30.07,29.80,20,7,20,0.00
2013-10-27,52.5,37.0,29.7,35.6,29.8,26.7,89,76,50,30.22,29.81,19,5,22,0.00
2013-10-28,38.5,29.9,27.5,26.6,22.7,20.9,77,74,62,30.50,30.32,14,6,15,0.00
2013-10-29,34.3,31.3,26.9,33.3,28.6,24.1,96,90,77,30.48,30.16,7,4,13,0.06
2013-10-30,44.2,39.6,34.3,43.9,39.0,33.3,99,98,96,30.16,29.70,6,3,11,0.01
2013-10-31,44.6,43.0,40.4,44.3,42.5,39.6,99,98,97,29.68,29.36,6,3,12,0.04